Location: Kershaw
(34.5481°N, 80.5823°W)
Time: 03:36:19
(UTC+00:00)

Tiros 1 despin weight - Pass Details

Date: 11 October 2022
Orbit: 590 x 637 km, 48.2° (Epoch: 30 November)

Event Time Altitude Azimuth Distance (km) Brightness Sun altitude
Rises 01:11:49 0° 301° (WNW) 2,880 ? -29.0°
Reaches altitude 10° 01:14:12 10° 294° (WNW) 1,981 ? -29.5°
Enters shadow 01:17:28 36° 258° (WSW) 985 ? -30.2°
Maximum altitude 01:18:29 42° 224° (SW) 891 - -30.4°
Drops below altitude 10° 01:22:50 10° 153° (SSE) 1,998 - -31.3°
Sets 01:25:15 0° 147° (SSE) 2,908 - -31.7°
